598  
ASUS41 KRLX 230110  
RWRRLX  
REGIONAL WEATHER ROUNDUP  
NATIONAL WEATHER SERVICE CHARLESTON WV  
900 PM EDT FRI OCT 22 2021  
 
NOTE: "FAIR" INDICATES FEW OR NO CLOUDS BELOW 12,000 FEET WITH NO  
SIGNIFICANT WEATHER AND/OR S TO VISIBILITY
.  
 
WVZ003-230200-  
NORTHERN PANHANDLE OF WEST VIRGINIA  
 
CITY SKY/WX TMP DP RH WIND PRES REMARKS
 
WHEELING CLOUDY 50 49 96 W5 30.01S  

 
 
WVZ009-230200-  
NORTHWEST WEST VIRGINIA  
 
CITY SKY/WX TMP DP RH WIND PRES REMARKS
 
PARKERSBURG CLOUDY 51 50 96 CALM 30.04S  

 
 
WVZ006-230200-  
WESTERN WEST VIRGINIA  
 
CITY SKY/WX TMP DP RH WIND PRES REMARKS
 
HUNTINGTON CLOUDY 53 47 79 CALM 30.04S  

 
 
WVZ015-230200-  
WEST CENTRAL WEST VIRGINIA  
 
CITY SKY/WX TMP DP RH WIND PRES REMARKS
 
CHARLESTON CLOUDY 53 49 86 CALM 30.04S  

 
 
WVZ509-031-039-230200-  
NORTH CENTRAL WEST VIRGINIA  
 
CITY SKY/WX TMP DP RH WIND PRES REMARKS
 
MORGANTOWN CLOUDY 52 48 86 SW6 30.03S  
CLARKSBURG CLOUDY 52 48 86 SW6 30.03S  
BUCKHANNON CLOUDY 50 50 100 S3 30.04S  

 
 
WVZ515-516-025-034-042-507-230200-  
SOUTHERN WEST VIRGINIA  
 
CITY SKY/WX TMP DP RH WIND PRES REMARKS
 
BECKLEY LGT RAIN 50 48 93 N3 30.05R  
LOGAN CLOUDY 54 48 82 VRB3 30.05R  
PINEVILLE CLOUDY 54 50 86 MISG 30.09S  
BLUEFIELD CLOUDY 48 43 82 W3 30.05S  
LEWISBURG CLOUDY 49 45 84 CALM 30.04R  

 
 
WVZ525-526-230200-  
NORTHERN MOUNTAINS OF WEST VIRGINIA  
 
CITY SKY/WX TMP DP RH WIND PRES REMARKS
 
ELKINS CLOUDY 51 45 79 W3 30.04S  

 
 
WVZ502-504-052-230200-  
EASTERN PANHANDLE OF WEST VIRGINIA  
 
CITY SKY/WX TMP DP RH WIND PRES REMARKS
 
PETERSBURG CLOUDY 57 51 81 CALM 30.00S  
CUMBERLAND CLOUDY 57 47 69 W3 30.04S  
MARTINSBURG CLOUDY 58 46 64 NW6 29.97S  

 
 
OHZ075-083-KYZ101-230200-  
SOUTHEAST OHIO/NORTHEAST KENTUCKY  
 
CITY SKY/WX TMP DP RH WIND PRES REMARKS
 
ATHENS CLOUDY 51 51 100 CALM 30.04S  
JACKSON CLOUDY 52 50 93 CALM 30.06S  
ASHLAND CLOUDY 53 50 89 CALM 30.06R  

 
 
 
CLICK HERE TO GO TO PREVIOUS BULLETINS.

The Nexlab WV Page
The Nexlab OH Page
The Nexlab KY Page
The Nexlab VA Page Main Text Page